| time (UTC) | temp F | wind direction | speed MPH | gust MPH | rain 1hr in | rain 24hr in | rain mn in | humidity % | barometer mb |
| 20260503000027 | 77 | 140 | 1.0 | 4.0 | 0.00 | 0.00 | 0.00 | 32 | 1018.5 |
| 20260502234537 | 76 | 23 | 0.0 | 4.0 | 0.00 | 0.00 | 0.00 | 33 | 1018.6 |
| 20260502233028 | 77 | 82 | 1.0 | 6.0 | 0.00 | 0.00 | 0.00 | 33 | 1018.7 |
| 20260502231529 | 77 | 40 | 1.0 | 5.0 | 0.00 | 0.00 | 0.00 | 32 | 1018.7 |
| 20260502230033 | 78 | 0 | 1.0 | 9.0 | 0.00 | 0.00 | 0.00 | 30 | 1018.7 |
| 20260502224529 | 78 | 63 | 1.0 | 7.0 | 0.00 | 0.00 | 0.00 | 30 | 1018.8 |
| 20260502223028 | 78 | 360 | 2.0 | 9.0 | 0.00 | 0.00 | 0.00 | 32 | 1018.8 |
| 20260502221527 | 79 | 67 | 0.0 | 5.0 | 0.00 | 0.00 | 0.00 | 30 | 1019.0 |
| 20260502220029 | 78 | 113 | 3.0 | 8.0 | 0.00 | 0.00 | 0.00 | 30 | 1019.1 |
| 20260502214529 | 78 | 92 | 3.0 | 10.0 | 0.00 | 0.00 | 0.00 | 30 | 1019.2 |
| 20260502213027 | 78 | 139 | 4.0 | 11.0 | 0.00 | 0.00 | 0.00 | 30 | 1019.3 |
| 20260502211530 | 78 | 158 | 2.0 | 10.0 | 0.00 | 0.00 | 0.00 | 29 | 1019.6 |
| 20260502210030 | 78 | 29 | 1.0 | 7.0 | 0.00 | 0.00 | 0.00 | 33 | 1019.7 |
| 20260502204529 | 78 | 57 | 4.0 | 9.0 | 0.00 | 0.00 | 0.00 | 29 | 1019.9 |
| 20260502203028 | 77 | 235 | 3.0 | 9.0 | 0.00 | 0.00 | 0.00 | 30 | 1019.9 |
| 20260502201533 | 78 | 169 | 2.0 | 8.0 | 0.00 | 0.00 | 0.00 | 31 | 1020.2 |
| 20260502200027 | 77 | 210 | 6.0 | 10.0 | 0.00 | 0.00 | 0.00 | 31 | 1020.5 |
| 20260502194529 | 77 | 14 | 2.0 | 9.0 | 0.00 | 0.00 | 0.00 | 31 | 1020.5 |
| 20260502193029 | 77 | 148 | 2.0 | 8.0 | 0.00 | 0.00 | 0.00 | 31 | 1020.7 |
| 20260502191529 | 77 | 147 | 4.0 | 8.0 | 0.00 | 0.00 | 0.00 | 30 | 1020.8 |
| 20260502190035 | 77 | 90 | 1.0 | 10.0 | 0.00 | 0.00 | 0.00 | 30 | 1021.0 |
| 20260502184536 | 75 | 88 | 2.0 | 6.0 | 0.00 | 0.00 | 0.00 | 32 | 1021.2 |
| 20260502183031 | 76 | 153 | 3.0 | 9.0 | 0.00 | 0.00 | 0.00 | 30 | 1021.4 |
| 20260502181539 | 76 | 89 | 2.0 | 7.0 | 0.00 | 0.00 | 0.00 | 32 | 1021.6 |
| 20260502163027 | 73 | 81 | 4.0 | 9.0 | 0.00 | 0.00 | 0.00 | 33 | 1022.3 |
| 20260502161528 | 72 | 195 | 1.0 | 9.0 | 0.00 | 0.00 | 0.00 | 35 | 1022.3 |
| 20260502151534 | 68 | 74 | 1.0 | 6.0 | 0.00 | 0.00 | 0.00 | 43 | 1022.0 |
| 20260502123033 | 50 | 0 | 0.0 | 0.0 | 0.00 | 0.00 | 0.00 | 87 | 1020.8 |
| 20260502121527 | 49 | 0 | 0.0 | 0.0 | 0.00 | 0.00 | 0.00 | 86 | 1020.5 |
| 20260502114528 | 49 | 0 | 0.0 | 0.0 | 0.00 | 0.00 | 0.00 | 86 | 1020.0 |
| 20260502113032 | 49 | 0 | 0.0 | 0.0 | 0.00 | 0.00 | 0.00 | 85 | 1019.8 |
| 20260502111529 | 49 | 0 | 0.0 | 0.0 | 0.00 | 0.00 | 0.00 | 85 | 1019.6 |
| 20260502110029 | 48 | 0 | 0.0 | 0.0 | 0.00 | 0.00 | 0.00 | 85 | 1019.6 |
| 20260502104527 | 48 | 0 | 0.0 | 0.0 | 0.00 | 0.00 | 0.00 | 84 | 1019.3 |
| 20260502103030 | 49 | 0 | 0.0 | 0.0 | 0.00 | 0.00 | 0.00 | 84 | 1019.2 |
| 20260502101540 | 49 | 0 | 0.0 | 0.0 | 0.00 | 0.00 | 0.00 | 84 | 1019.1 |
| 20260502091528 | 50 | 0 | 0.0 | 0.0 | 0.00 | 0.00 | 0.00 | 84 | 1019.1 |
| 20260502071529 | 52 | 0 | 0.0 | 0.0 | 0.00 | 0.00 | 0.00 | 82 | 1018.9 |
| 20260502070028 | 52 | 0 | 0.0 | 0.0 | 0.00 | 0.00 | 0.00 | 82 | 1019.0 |
| 20260502064526 | 52 | 0 | 0.0 | 0.0 | 0.00 | 0.00 | 0.00 | 81 | 1019.3 |
| 20260502063031 | 53 | 0 | 0.0 | 0.0 | 0.00 | 0.00 | 0.00 | 81 | 1019.3 |
| 20260502061529 | 53 | 0 | 0.0 | 0.0 | 0.00 | 0.00 | 0.00 | 81 | 1019.2 |
| 20260502060027 | 54 | 0 | 0.0 | 0.0 | 0.00 | 0.00 | 0.00 | 81 | 1019.1 |
| 20260502054528 | 54 | 0 | 0.0 | 0.0 | 0.00 | 0.00 | 0.00 | 80 | 1019.2 |
| 20260502053030 | 55 | 0 | 0.0 | 0.0 | 0.00 | 0.00 | 0.00 | 80 | 1019.1 |
| 20260502051529 | 55 | 0 | 0.0 | 0.0 | 0.00 | 0.00 | 0.00 | 79 | 1019.2 |
| 20260502050037 | 56 | 0 | 0.0 | 0.0 | 0.00 | 0.00 | 0.00 | 78 | 1019.1 |
| 20260502044531 | 56 | 0 | 0.0 | 0.0 | 0.00 | 0.00 | 0.00 | 77 | 1019.0 |
| 20260502043027 | 56 | 0 | 0.0 | 0.0 | 0.00 | 0.00 | 0.00 | 76 | 1019.1 |
| 20260502041537 | 57 | 0 | 0.0 | 0.0 | 0.00 | 0.00 | 0.00 | 76 | 1018.8 |
| 20260502040026 | 58 | 0 | 0.0 | 0.0 | 0.00 | 0.00 | 0.00 | 75 | 1018.9 |
| 20260502034528 | 58 | 0 | 0.0 | 0.0 | 0.00 | 0.00 | 0.00 | 74 | 1018.9 |
| 20260502033031 | 59 | 0 | 0.0 | 0.0 | 0.00 | 0.00 | 0.00 | 74 | 1018.9 |
| 20260502031530 | 59 | 0 | 0.0 | 0.0 | 0.00 | 0.00 | 0.00 | 72 | 1018.7 |
| 20260502030030 | 59 | 0 | 0.0 | 0.0 | 0.00 | 0.00 | 0.00 | 72 | 1018.6 |
| 20260502024529 | 60 | 0 | 0.0 | 0.0 | 0.00 | 0.00 | 0.00 | 72 | 1018.7 |
| 20260502023029 | 60 | 0 | 0.0 | 0.0 | 0.00 | 0.00 | 0.00 | 71 | 1018.5 |
| 20260502021527 | 60 | 0 | 0.0 | 0.0 | 0.00 | 0.00 | 0.00 | 69 | 1018.3 |
| 20260502020030 | 61 | 0 | 0.0 | 3.0 | 0.00 | 0.00 | 0.00 | 68 | 1018.0 |
| 20260502014530 | 61 | 279 | 1.0 | 3.0 | 0.00 | 0.00 | 0.00 | 68 | 1017.6 |
| 20260502013029 | 61 | 0 | 0.0 | 2.0 | 0.00 | 0.00 | 0.00 | 67 | 1017.3 |
| 20260502011527 | 62 | 0 | 0.0 | 2.0 | 0.00 | 0.00 | 0.00 | 67 | 1017.1 |
| 20260502010026 | 62 | 278 | 1.0 | 3.0 | 0.00 | 0.00 | 0.00 | 66 | 1016.9 |
| 20260502004530 | 62 | 0 | 0.0 | 2.0 | 0.00 | 0.00 | 0.00 | 66 | 1016.9 |
| 20260502003027 | 63 | 0 | 1.0 | 3.0 | 0.00 | 0.00 | 0.00 | 63 | 1016.7 |
| 20260502001528 | 63 | 0 | 0.0 | 3.0 | 0.00 | 0.00 | 0.00 | 62 | 1016.5 |